H1 CPF 1 SGF 2011 8 17 2 7291 etalon1 H2 8900103 525 19751 2011 8 17 0 0 0 2011 8 19 23 15 0 2700 1 1 0 0 0 H9 10 0 55790 0.00000 0 -12534124.735 2419263.599 -22048859.276 10 0 55790 2700.00000 0 -9937654.073 -5583998.420 -22801277.527 10 0 55790 5400.00000 0 -9156405.611 -13497597.986 -19612556.020 10 0 55790 8100.00000 0 -9915725.501 -19573634.173 -13039700.378 10 0 55790 10800.00000 0 -11137709.363 -22588620.870 -4220377.911 10 0 55790 13500.00000 0 -11376987.634 -22240515.349 5325265.998 10 0 55790 16200.00000 0 -9398212.212 -19217908.615 13955584.769 10 0 55790 18900.00000 0 -4682587.222 -14920057.417 20186981.742 10 0 55790 21600.00000 0 2322273.601 -10931723.794 22945973.672 10 0 55790 24300.00000 0 10302219.470 -8443816.557 21752827.200 10 0 55790 27000.00000 0 17493997.090 -7829784.294 16806452.890 10 0 55790 29700.00000 0 22273486.687 -8532310.311 8954809.180 10 0 55790 32400.00000 0 23703722.362 -9303342.295 -447309.783 10 0 55790 35100.00000 0 21842348.422 -8710538.204 -9771659.993 10 0 55790 37800.00000 0 17693808.775 -5721910.326 -17401256.882 10 0 55790 40500.00000 0 12823298.082 -148254.550 -22014572.486 10 0 55790 43200.00000 0 8776903.501 7224815.205 -22816524.822 10 0 55790 45900.00000 0 6524433.313 14866357.933 -19674612.504 10 0 55790 48600.00000 0 6130307.180 21006968.001 -13137791.918 10 0 55790 51300.00000 0 6770259.967 24237399.314 -4337576.558 10 0 55790 54000.00000 0 7082866.907 23981960.750 5209129.170 10 0 55790 56700.00000 0 5723051.614 20677353.104 13860485.234 10 0 55790 59400.00000 0 1912954.617 15595214.632 20129309.547 10 0 55790 62100.00000 0 -4212052.187 10374774.018 22935736.278 10 0 55790 64800.00000 0 -11590175.778 6435193.651 21791907.648 10 0 55790 67500.00000 0 -18561555.531 4479811.040 16888227.060 10 0 55790 70200.00000 0 -23423807.198 4272104.156 9065222.490 10 0 55790 72900.00000 0 -25015964.142 4766106.505 -327344.991 10 0 55790 75600.00000 0 -23117543.509 4544441.724 -9662938.174 10 0 55790 78300.00000 0 -18514022.979 2401304.421 -17322622.516 10 0 55790 81000.00000 0 -12703071.340 -2149191.521 -21979611.841 10 0 55790 83700.00000 0 -7350944.165 -8632099.257 -22831210.599 10 0 55791 0.00000 0 -3701690.762 -15729927.718 -19736310.601 10 0 55791 2700.00000 0 -2156900.518 -21716978.395 -13235775.810 10 0 55791 5400.00000 0 -2177212.262 -25050156.688 -4454922.881 10 0 55791 8100.00000 0 -2536462.437 -24901161.480 5092616.820 10 0 55791 10800.00000 0 -1830600.604 -21438346.587 13764830.957 10 0 55791 13500.00000 0 947614.209 -15758386.701 20070969.089 10 0 55791 16200.00000 0 5979341.188 -9494115.250 22924796.584 10 0 55791 18900.00000 0 12493935.339 -4240419.168 21830337.007 10 0 55791 21600.00000 0 18996047.641 -1004770.278 16969482.983 10 0 55791 24300.00000 0 23767848.246 119203.683 9175320.133 10 0 55791 27000.00000 0 25467189.188 -64218.500 -207446.851 10 0 55791 29700.00000 0 23603440.438 -206141.800 -9554025.075 10 0 55791 32400.00000 0 18713821.917 1027378.959 -17243572.995 10 0 55791 35100.00000 0 12172859.917 4400048.990 -21944081.336 10 0 55791 37800.00000 0 5705273.828 9764547.898 -22845264.687 10 0 55791 40500.00000 0 783526.304 16065240.135 -19797419.904 10 0 55791 43200.00000 0 -1867974.759 21683841.792 -13333313.857 10 0 55791 45900.00000 0 -2482943.885 25000454.175 -4572042.226 10 0 55791 48600.00000 0 -2105942.794 24964764.148 4976077.833 10 0 55791 51300.00000 0 -2147023.153 21470457.341 13668911.767 10 0 55791 54000.00000 0 -3804605.649 15398551.280 20012189.014 10 0 55791 56700.00000 0 -7568941.918 8314999.222 22913344.888 10 0 55791 59400.00000 0 -12988568.807 1931476.136 21868306.911 10 0 55791 62100.00000 0 -18787745.947 -2477373.144 17050453.342 10 0 55791 64800.00000 0 -23296704.238 -4490620.067 9285391.191 10 0 55791 67500.00000 0 -25041789.669 -4640200.681 -87292.154 10 0 55791 70200.00000 0 -23280373.711 -4155553.579 -9444614.645 10 0 55791 72900.00000 0 -18281489.600 -4448346.314 -17163884.389 10 0 55791 75600.00000 0 -11245608.939 -6530963.066 -21907905.169 10 0 55791 78300.00000 0 -3892142.810 -10588568.076 -22858805.024 10 0 55791 81000.00000 0 2132258.248 -15866151.474 -19858253.226 10 0 55791 83700.00000 0 5806633.647 -20912665.102 -13430865.518 10 0 55792 0.00000 0 7049597.532 -24091410.152 -4689460.633 10 0 55792 2700.00000 0 6684474.886 -24169015.457 4859003.352 10 0 55792 5400.00000 0 6074111.744 -20768494.277 13572298.784 10 0 55792 8100.00000 0 6562822.112 -14522640.714 19952649.571 10 0 55792 10800.00000 0 8931071.623 -6872637.862 22901162.762 10 0 55792 13500.00000 0 13062819.395 416226.917 21905659.917 10 0 55792 16200.00000 0 17948957.061 5848938.462 17130987.445 10 0 55792 18900.00000 0 22029611.743 8692214.198 9395253.559 10 0 55792 21600.00000 0 23754338.386 9185072.377 32904.646 10 0 55792 24300.00000 0 22156201.986 8390935.667 -9334918.533 10 0 55792 27000.00000 0 17226261.273 7745878.316 -17083706.238 10 0 55792 29700.00000 0 9946641.572 8472592.452 -21871101.240 10 0 55792 32400.00000 0 1967992.050 11081271.097 -22871663.854 10 0 55792 35100.00000 0 -4949471.897 15145214.255 -19918447.912 10 0 55792 37800.00000 0 -9525494.664 19434351.967 -13527916.097 10 0 55792 40500.00000 0 -11365848.318 22355988.952 -4806589.920 10 0 55792 43200.00000 0 -11041223.753 22539644.406 4741965.654 10 0 55792 45900.00000 0 -9815836.472 19351898.725 13475471.231 10 0 55792 48600.00000 0 -9129228.318 13154143.708 19892689.240 10 0 55792 51300.00000 0 -10022478.147 5209669.975 22888440.159 10 0 55792 54000.00000 0 -12718830.220 -2727700.882 21942470.500 10 0 55792 56700.00000 0 -16513038.543 -8997531.936 17211102.837 10 0 55792 59400.00000 0 -20013016.715 -12580737.860 9504922.890 10 0 55792 62100.00000 0 -21649245.619 -13413755.685 153184.449 10 0 55792 64800.00000 0 -20266659.102 -12353652.195 -9224877.921 10 0 55792 67500.00000 0 -15579023.034 -10806756.090 -17003000.572 10 0 55792 70200.00000 0 -8314050.932 -10159967.912 -21833714.789 10 0 55792 72900.00000 0 7198.646 -11229078.755 -22884031.041 10 0 55792 75600.00000 0 7575748.857 -13931301.726 -19978365.857 10 0 55792 78300.00000 0 12898915.655 -17303204.118 -13624979.107 10 0 55792 81000.00000 0 15283499.467 -19855392.595 -4924034.813 10 0 55792 83700.00000 0 15025554.523 -20131441.538 4624354.089 99